STARLINK-34026, 63842

Orbit data source: Space-Track

STARLINK-34026, 63842 is a payload satellite owned by SpaceX/Seattle (US) in LEO that was launched on Wed, 07 May 2025 UTC via an FALCON 9 launch vehicle from the Air Force Eastern Test Range (AFETR). Payload-class satellites include a variety of spacecraft equipped with specific instruments for various scientific and technological missions. These include communications satellites like Starlink; space stations such as the ISS; scientific satellites like the Hubble; Earth observation satellites from companies like Planet Labs, Umbra, and HawkEye 360; GPS; miniature CubeSats for education and research; and military/defense satellites.

Loading next visibility...
Identifier
63842, 2025-093G
Orbit
LEO
Country
Flag of USUS
Related business
Manufacturer
SpaceX/Seattle
Mission
Operational Commercial Communications
Bus & Motor
STARLINK V2MO, Unknown motor
Mass
575 kg wet, ~530 kg dry
Launch date (UTC)
2025-05-07 (7 months ago)
Launch vehicle
FALCON 9
Launch site
Air Force Eastern Test Range (AFETR)
Object type
Payload
Rocket body
Debris
Shape & HBR
Box + 2 Pan, 17.7 m
Radar Cross Section
36.964 m², Large (>1 m²)

Expand to show TLE details & history
Last TLE update: 13 hours ago

TLE from 13 hours ago
0 STARLINK-34026
1 63842U 25093G   25349.62959095 -.00001616  00000-0 -49234-4 0  9992
2 63842  43.0014 192.8626 0001327 240.6091 119.4629 15.27573363 34894
Epoch: 2025-12-15T15:06Z
TLE epoch observation values (Epoch: 2025-12-15T15:06:36.658Z)
Latitude
0.00005°
Longitude
-118.3155°
Altitude
483.292 km
Speed
7.625 km/s
True Right ascension
12h 51m 27s
True Declination
0° 00' 00"
Sunlit
Object was in daylight at epoch
Visualization orbit readout
Latitude
Unknown
Longitude
Unknown
Altitude
Unknown
Speed
Unknown
Apparent Right ascension
Unknown
Apparent Declination
Unknown
Sunlit
N/A
Visualization observer readout
Local Sidereal Time
03:12:45
Azimuth
Unknown
Elevation
Unknown
Doppler factor
Unknown
Orbital elements
Apogee altitude
485.925 km
Perigee altitude
484.103 km
Semi-major axis
6,863.151 km
Eccentricity
0.00013
Inclination
43.0014°
RAAN
192.8626°
Arg. of periapsis
240.6091°
True anomaly
119.47614°
Mean anomaly
119.4629°
Eccentric anomaly
119.46952°
Mean motion
3.81731 °/min
Orbital period
94.31 mins
BSTAR
-0.000049234
Loading maneuver chart data...
Computing Atmospheric mass density...
Loading historical data...
Loading historical data...
Loading historical data...
Loading historical data...
Loading historical data...
Loading historical data...
Loading historical data...

Documentation

Showing up to 5 results
|